Location: Ch�ze
(42.9000°N, 0.0333°W)
Time: 18:53:06
(UTC+00:00)

Cosmos 1937 Rocket - Pass Details

Date: 24 January 2021
Orbit: 747 x 780 km, 74.0° (Epoch: 08 March)

Event Time Altitude Azimuth Distance (km) Brightness Sun altitude
Rises 17:58:57 0° 172° (S) 3,238 6.9 -10.4°
Reaches altitude 10° 18:01:30 10° 163° (SSE) 2,319 6.0 -10.9°
Maximum altitude 18:06:11 33° 101° (E) 1,287 4.2 -11.7°
Enters shadow 18:10:46 11° 39° (NE) 2,296 5.5 -12.5°
